www.pogodaiklimat.ru

Погода и климат >> Архив погоды >> Оман >> Al Mudhaibi


ПОГОДА в Al Mudhaibi

  • Прогноз погоды в Al Mudhaibi
  • Монитор погоды в Al Mudhaibi
  • Климат города

АРХИВ ПОГОДЫ в Al Mudhaibi

Время (UTC), дата Ветер
(напр.,м/с)
 
Видим.   Явления Облачность Т
(С)
Тd
(С)
f
(%)
Тe
(С)
Тes
(С)
Комфортность P
(гПа)
Po
(гПа)
Тmin
(С)
Tmax
(С)
R
(мм)
R24
(мм)
S
(см)
18 13.05 Ю 6 н/о н/о +33.6 +11.7 26 +33 +33 жарко 1005.4 965.0 +40.3
21 13.05 Ю 5 н/о н/о +30.0 +16.0 43 +33 +33 душно 1005.3 964.6
00 14.05 В 2 н/о н/о +27.2 +17.8 56 +31 +31 душно 1006.0 964.8
03 14.05 ЮВ 2 н/о н/о +27.4 +16.4 51 +31 +31 душно 1007.2 966.0
06 14.05 ЮЗ 3 н/о н/о +35.2 +9.1 20 +34 +34 очень
жарко
1007.6 967.4 +25.9
09 14.05 ЮЗ 5 н/о н/о +38.3 +4.3 12 +35 +35 очень
жарко
1005.2 965.4
12 14.05 ЮЗ 5 н/о н/о +39.6 +4.5 12 +37 +37 очень
жарко
1002.7 963.2
15 14.05 ЮЗ 4 н/о н/о +38.1 +6.9 15 +36 +36 очень
жарко
1003.1 963.4
18 14.05 Ю 6 н/о н/о +33.4 +16.6 37 +36 +36 очень
душно
1005.4 965.1 +40.5
21 14.05 Ю 2 н/о н/о +30.6 +20.0 53 +37 +37 очень
душно
1005.3 964.7
00 15.05 ЮВ 4 н/о н/о +28.1 +22.0 70 +37 +37 очень
душно
1005.6 964.7
03 15.05 ЮВ 3 н/о н/о +27.8 +22.6 73 +37 +37 очень
душно
1007.5 966.5
06 15.05 ЮЗ 4 н/о н/о +33.4 +17.3 38 +37 +37 очень
душно
1007.5 967.1 +26.9
09 15.05 ЮЗ 5 н/о н/о +37.6 +14.9 26 +39 +39 очень
душно
1004.9 965.1
12 15.05 ЮЗ 5 н/о н/о +39.5 +12.5 20 +39 +39 очень
жарко
1002.0 962.5
15 15.05 ЮЗ 3 н/о н/о +38.5 +10.4 18 +37 +37 очень
жарко
1002.4 962.8
18 15.05 Ю 4 н/о н/о +33.2 +19.4 44 +39 +39 очень
душно
1005.0 964.7 +40.8
21 15.05 ЮВ 3 н/о н/о +30.0 +21.3 60 +38 +38 очень
душно
1005.6 964.9
00 16.05 Ю 2 н/о н/о +28.8 +20.7 62 +36 +36 очень
душно
1005.5 964.7
03 16.05 Ю 3 н/о н/о +29.0 +20.6 61 +36 +36 очень
душно
1006.9 966.1
06 16.05 ЮЗ 4 н/о н/о +33.4 +19.9 45 +39 +39 очень
душно
1006.9 966.6 +27.9
09 16.05 ЮЗ 5 н/о н/о +39.1 +16.0 26 +41 +41 опасность
перегрева
1003.6 964.0
12 16.05 н/о н/о +35.2 +11.4 24 1004.3 964.2
15 16.05 С 5 н/о н/о +35.5 +10.0 21 +34 +34 очень
жарко
1004.2 964.1
18 16.05 ЮВ 7 н/о н/о +32.3 +16.2 38 +35 +35 очень
душно
1006.3 965.8 +40.2
21 16.05 В 5 н/о н/о +29.2 +22.1 66 +38 +38 очень
душно
1006.5 965.7
00 17.05 ЮВ 3 н/о н/о +27.5 +23.0 76 +37 +37 очень
душно
1006.6 965.6
03 17.05 ЮВ 3 н/о н/о +27.7 +23.6 78 +38 +38 очень
душно
1007.6 966.6
06 17.05 З 2 н/о н/о +33.0 +20.6 48 +40 +40 очень
душно
1007.5 967.1 +27.0
09 17.05 Ю 3 н/о н/о +38.1 +16.6 28 +40 +40 очень
душно
1004.8 965.1
12 17.05 З 5 н/о н/о +39.4 +10.5 18 +38 +38 очень
жарко
1002.7 963.1
15 17.05 В 8 н/о н/о +33.9 +12.7 28 +34 +34 очень
жарко
1004.4 964.1
18 17.05 С 3 н/о н/о +32.7 +12.3 29 +33 +33 жарко 1006.7 966.2 +41.0
21 17.05 ЮВ 4 н/о н/о +31.7 +11.7 29 +32 +32 жарко 1005.5 964.9
00 18.05 В 2 н/о н/о +29.0 +16.3 46 +32 +32 душно 1006.0 965.1
03 18.05 В 4 н/о н/о +28.8 +21.1 63 +36 +36 очень
душно
1007.3 966.4
06 18.05 ЮВ 3 н/о н/о +34.0 +19.3 42 +39 +39 очень
душно
1006.7 966.4 +27.9
09 18.05 ЮВ 2 н/о н/о +38.7 +15.6 26 +40 +40 очень
душно
1003.9 964.3
12 18.05 ЮЗ 5 н/о н/о +41.1 +7.9 14 +39 +39 очень
жарко
1001.4 962.1
15 18.05 З 8 н/о н/о +39.1 +5.5 13 +36 +36 очень
жарко
1001.9 962.3
18 18.05 В 6 н/о н/о +33.5 +12.4 28 +34 +34 очень
жарко
1005.0 964.7 +41.9
21 18.05 В 3 н/о н/о +30.8 +11.7 31 +31 +31 жарко 1005.1 964.4
00 19.05 СВ 2 н/о н/о +28.7 +12.4 37 +30 +30 жарко 1005.1 964.2
03 19.05 В 2 н/о н/о +29.6 +11.0 32 +30 +30 жарко 1006.1 965.2
06 19.05 ЮВ 2 н/о н/о +35.1 +10.5 22 +34 +34 очень
жарко
1006.0 965.8 +27.2
09 19.05 ЮЗ 4 н/о н/о +39.4 +8.4 15 +37 +37 очень
жарко
1003.2 963.7
12 19.05 З 8 н/о н/о +40.5 +5.2 12 +38 +38 очень
жарко
1000.9 961.5
15 19.05 С 6 н/о н/о +36.7 +8.0 17 +35 +35 очень
жарко
1002.2 962.3
18 19.05 ЮВ 7 н/о н/о +31.7 +15.3 37 +34 +34 душно 1005.4 964.8 +41.6
21 19.05 ЮВ 3 н/о н/о +28.1 +16.4 49 +32 +32 душно 1006.1 965.1
00 20.05 СВ 2 н/о н/о +26.0 +16.3 55 +29 +29 душно 1006.0 964.7
03 20.05 СВ 1 н/о н/о +27.1 +17.1 54 +31 +31 душно 1006.9 965.7
06 20.05 СЗ 2 н/о н/о +35.9 +6.1 16 +33 +33 жарко 1006.2 966.0 +25.3
09 20.05 ЮЗ 4 н/о н/о +38.7 +4.3 12 +36 +36 очень
жарко
1004.2 964.4
12 20.05 ЮВ 5 н/о н/о +40.1 +2.6 10 +37 +37 очень
жарко
1001.9 962.4

 

Местоположение метеостанции Al Mudhaibi (Оман): широта 22.51 долгота 58.13 высота над уровнем моря 378 м.

В архиве по умолчанию представлена погода в Al Mudhaibi за последнюю неделю. Архивные данные за месяц целиком и за предыдущие месяцы, начиная с января 2011 года, Вы можете получить, выбрав интересующий диапазон дат из раскрывающегося списка и нажав кнопку "Ввод!".


*Определитесь, кто Вы:
робот инопланетянин человек

Внимание! Время в таблицах - всемирное. Для получения местного времени необходимо прибавить поправку, которая в Al Mudhaibi равна 4 ч.

Смотрите также архив погоды в соседних городах и на ближайших метеорологических станциях:

Погода в Ibra (Оман) (45 км)
Погода в Adam (Оман) (64 км)
Погода в Nizwa (Оман) (72 км)
Погода в Bidiya (Оман) (74 км)
Погода в Saiq (Оман) (81 км)
Погода в Samail (Оман) (90 км)
Погода в Bahla (Оман) (100 км)
Погода в Al Amerat (Оман) (116 км)
Погода в Jabal Shams (Оман) (120 км)
Погода в Seeb (Оман) (120 км)

Пояснения к столбцам:

Ветер - указаны скорость ветра в м/с - средняя за 10 мин, порывы в срок и между сроками (в фигурных скобках) и направление, откуда дует ветер: С - северный, СВ - северо-восточный, В - восточный, ЮВ - юго-восточный, Ю - южный, ЮЗ - юго-западный, З - западный, СЗ - северо-западный.
Видимость - горизонтальная дальность видимости в метрах или километрах. При видимости от 1 до 10 км при отсутствии осадков обычно наблюдается дымка, при ухудшении видимости до 1 км и менее - туман. В сухую погоду видимость может ухудшаться дымом, пылью или мглою.
Явления - указаны атмосферные явления, наблюдавшиеся в срок или в последний час перед сроком; фигурными скобками обозначены явления, наблюдавшиеся между сроками (за 1-3 часа до срока); квадратными скобками обозначены град или гололедные отложения с указанием их диаметра в мм.
Облачность - указаны через наклонную черту общая и нижняя облачность в баллах и высота нижней границы облаков в метрах; квадратными скобками обозначены формы облаков: Ci - перистые, Cs - перисто-слоистые, Cc - перисто-кучевые, Ac - высококучевые, As - высокослоистые, Sc - слоисто-кучевые, Ns - слоисто-дождевые, Cu - кучевые, Cb - кучево-дождевые. Подробнее классификацию облаков см. в Атласе облаков (PDF).
T - Температура воздуха - температура, измеренная на высоте 2 м над землей.
Td - Температура точки росы - температура, при понижении до которой содержащийся в воздухе водяной пар достигнет насыщения.
f - Относительная влажность воздуха - влажноcть воздуха, измеренная на высоте 2 м над землей.
Te - Эффективная температура - температура, которую ощущает одетый по сезону человек в тени. Характеристика душности погоды. При расчете учитывается влияние влажности воздуха и скорости ветра на теплоощущения человека.
Tes - Эффективная температура на солнце - температура, которую ощущает человек, с поправкой на солнечный нагрев. Характеристика знойности погоды. Зависит от высоты солнца над горизонтом, облачности и скорости ветра. Ночью, в пасмурную погоду, а также при ветре 12 м/с и более поправка равна нулю.
P - Атмосферное давление - приведенное к уровню моря атмосферное давление.
Po - Атмосферное давление - измеренное на уровне метеостанции атмосферное давление.
Tmin - Минимальная температура - минимум температуры воздуха на высоте 2 м над землей.
Tmax - Максимальная температура - максимум температуры воздуха на высоте 2 м над землей.
R - Количество осадков - Количество выпавших осадков за период времени, мм. При наведении курсора мыши на число - период времени, за который выпало указанное количество осадков.
R24 - Количество осадков - Количество выпавших осадков за 24 часа, мм.
S - Снежный покров - Высота снежного покрова, см. При наведении курсора мыши на число - состояние снежного покрова и степень покрытия местности в баллах.